Terminal Aerodrome Forecast
Issued by NWS State College, PA

Home | Current Version | Previous Version | Text Only | Print | Product List | Glossary On
Versions: 1 2 3 4 5 6 7 8 9 10 11 12 13 14 15 16 17 18 19 20 21 22 23 24 25 26 27 28 29 30 31 32 33 34 35 36 37 38 39 40 41 42 43 44 45 46 47 48 49 50
000
FTUS41 KCTP 020312 AAA
TAFMDT
TAF AMD
KMDT 020312Z 0203/0224 13004KT P6SM SCT030 BKN100
     FM020500 13005KT 5SM BR BKN035
     FM020700 06003KT 5SM BR OVC025
     FM021000 11003KT 4SM BR VCSH OVC007
     FM021500 10004KT P6SM VCSH OVC025
     FM021800 14003KT P6SM VCSH BKN040=

USA.gov is the U.S. government's official web portal to all federal, state and local government web resources and services.